time_stamp(utc),avg(mph),gust(mph),direction(deg),12m_air_temp(f),sonic_u(cm/s),sonic_v(cm/s),sonic_w(cm/s),pressure,2m_air_temp(f),pyranometer(W/m^2)
"2021-03-29 00:02:39+00",20.7,22.7,,55.5,-535,-782,11,998.36,54.9,0
"2021-03-29 00:07:39+00",21.4,23.4,,55.2,-667,-678,12,998.68,54.7,0
"2021-03-29 00:12:39+00",29.7,34.7,,54.9,-1300,-193,32,1000.71,54.4,0
"2021-03-29 00:17:39+00",19.1,22.1,,56.2,-827,322,45,1000.46,54.4,0
"2021-03-29 00:22:39+00",22.9,27.9,,57.7,-906,608,7,1000.45,55,0
"2021-03-29 00:27:39+00",21.9,25.9,,57.9,-835,525,54,1000.74,55.3,0
"2021-03-29 00:32:39+00",19.5,21.5,,57.8,-718,493,43,1000.86,55.4,0
"2021-03-29 00:37:39+00",20.1,22.1,,57.5,-726,551,70,1001.57,55.4,0
"2021-03-29 00:42:39+00",18.3,22.3,,57.2,-673,488,45,1001.74,55.3,0
"2021-03-29 00:47:39+00",15.5,17.5,,56.7,-605,343,31,1001.79,55.1,0
"2021-03-29 00:52:39+00",17.1,20.1,,56.2,-703,337,38,1002.05,54.7,0
"2021-03-29 00:57:39+00",16.6,19.6,,56.4,-646,373,41,1001.94,54.7,0
"2021-03-29 01:02:39+00",14.4,16.4,,56.4,-502,380,42,1001.66,54.7,0
"2021-03-29 01:07:39+00",14.3,16.3,,56.2,-514,385,51,1001.75,54.5,0
"2021-03-29 01:12:39+00",31.4,34.4,,57.4,-1358,1217,-163,1001.94,54.9,0
"2021-03-29 01:17:39+00",23.6,26.6,,56.9,-796,680,73,1002.02,55,0
"2021-03-29 01:22:39+00",23.2,25.2,,57,-710,720,95,1002.28,55.2,0
"2021-03-29 01:27:39+00",19.4,21.4,,56.5,-656,564,55,1002.22,54.9,0
"2021-03-29 01:32:39+00",22.5,25.5,,56.5,-771,636,74,1002.61,54.9,0
"2021-03-29 01:37:39+00",17.4,19.4,,55.7,-626,462,35,1002.54,54.3,0
"2021-03-29 01:42:39+00",18.0,20.0,,55.9,-642,474,53,1002.51,53.9,0
"2021-03-29 01:47:39+00",18.5,20.5,,55.5,-708,479,54,1002.69,53.6,0
"2021-03-29 01:52:39+00",17.9,19.9,,55.5,-740,295,51,1003.75,53.4,0
"2021-03-29 01:57:39+00",14.7,16.7,,55.4,-631,172,28,1003.99,53.2,0
"2021-03-29 02:02:39+00",17.3,20.3,,55.2,-681,359,38,1003.3,53.2,0
"2021-03-29 02:07:39+00",16.0,18.0,,54.8,-658,308,22,1003.2,53.1,0
"2021-03-29 02:12:39+00",14.4,16.4,,54.6,-636,138,16,1003.62,53,0
"2021-03-29 02:17:39+00",11.8,15.8,,54.6,-526,30,14,1003.86,53,0
"2021-03-29 02:22:39+00",12.4,14.4,,54.7,-547,104,19,1003.58,53.1,0
"2021-03-29 02:27:39+00",11.2,14.2,,54.7,-488,160,19,1003.24,53.1,0
"2021-03-29 02:32:39+00",11.6,12.6,,54.6,-501,138,16,1003.15,53.1,0
"2021-03-29 02:37:39+00",17.8,22.8,,55.1,-693,394,32,1002.86,53.3,0
"2021-03-29 02:42:39+00",16.6,18.6,,55.2,-657,376,45,1002.9,53.5,0
"2021-03-29 02:47:39+00",23.6,27.6,,55.5,-899,597,71,1002.85,53.6,0
"2021-03-29 02:52:39+00",21.9,24.9,,55.7,-903,451,59,1003.01,53.7,0
"2021-03-29 02:57:39+00",23.7,26.7,,55.5,-948,470,61,1003.59,53.6,0
"2021-03-29 03:02:39+00",20.8,22.8,,54.8,-800,480,45,1003.47,53.2,0
"2021-03-29 03:07:39+00",18.4,20.4,,54.7,-726,402,21,1003.37,52.8,0
"2021-03-29 03:12:39+00",13.7,15.7,,54.4,-561,240,23,1003.45,52.4,0
"2021-03-29 03:17:39+00",14.0,16.0,,54.4,-630,118,29,1003.69,52.2,0
"2021-03-29 03:22:39+00",9.7,10.7,,54.1,-412,-89,14,1003.77,52.2,0
"2021-03-29 03:27:39+00",11.4,13.4,,54.1,-502,27,27,1003.35,52.2,0
"2021-03-29 03:32:39+00",10.7,12.7,,53.9,-475,19,16,1003.13,52.1,0
"2021-03-29 03:37:39+00",13.7,18.7,,54.2,-610,-68,19,1003.45,52.1,0
"2021-03-29 03:42:39+00",16.3,19.3,,55.1,-722,-27,22,1003.8,52.6,0
"2021-03-29 03:47:39+00",17.4,22.4,,55,-772,-75,34,1004.13,52.9,0
"2021-03-29 03:52:39+00",28.1,35.1,,55.9,-1084,-60,238,1004.27,53.4,0
"2021-03-29 03:57:39+00",22.1,25.1,,55.6,-984,-104,42,1004.71,53.6,0
"2021-03-29 04:02:39+00",20.7,25.7,,55.1,-905,-218,18,1004.6,53.7,0
"2021-03-29 04:07:39+00",20.5,27.5,,55.2,-897,-106,45,1004.36,53.6,0
"2021-03-29 04:12:39+00",22.3,24.3,,54.8,-999,-77,57,1004.36,53.5,0
"2021-03-29 04:17:39+00",22.0,26.0,,54.3,-978,-13,41,1004.57,53.2,0
"2021-03-29 04:22:39+00",23.1,27.1,,54,-1030,156,74,1004.76,52.9,0
"2021-03-29 04:27:39+00",29.4,37.4,,54.6,-1274,376,66,1004.68,52.8,0
"2021-03-29 04:32:39+00",25.5,27.5,,54.2,-1131,252,56,1005.15,52.8,0
"2021-03-29 04:37:39+00",25.0,28.0,,53.5,-1115,193,56,1005.09,52.6,0
"2021-03-29 04:42:39+00",32.1,35.1,,53.9,-1392,395,73,1005.02,52.5,0
"2021-03-29 04:47:39+00",32.6,36.6,,53.7,-1429,380,75,1005.22,52.5,0
"2021-03-29 04:52:39+00",30.9,34.9,,53.3,-1359,356,77,1005.2,52.3,0
"2021-03-29 04:57:39+00",36.3,43.3,,53.3,-1548,589,91,1004.99,52.1,0
"2021-03-29 05:02:39+00",34.0,39.0,,53.1,-1472,501,51,1004.96,52,0
"2021-03-29 05:07:39+00",34.1,39.1,,52.8,-1444,630,98,1005.28,51.9,0
"2021-03-29 05:12:39+00",41.4,47.4,,52.9,-1747,669,94,1005.73,51.8,0
"2021-03-29 05:17:39+00",37.3,44.3,,52.7,-1524,747,76,1006.19,51.6,0
"2021-03-29 05:22:39+00",35.6,40.6,,52.6,-1488,642,82,1006.81,51.5,0
"2021-03-29 05:27:39+00",31.5,36.5,,52.4,-1326,490,89,1006.85,51.5,0
"2021-03-29 05:32:39+00",34.1,41.1,,52.1,-1381,689,81,1006.01,51.2,0
"2021-03-29 05:37:39+00",40.7,48.7,,52,-1668,728,115,1005.99,51,0
"2021-03-29 05:42:39+00",31.1,38.1,,51.7,-1349,476,104,1006.93,50.9,0
"2021-03-29 05:47:39+00",34.8,38.8,,51.5,-1396,693,61,1007.2,50.6,0
"2021-03-29 05:52:39+00",34.2,41.2,,51.1,-1378,747,90,1007.23,50.2,0
"2021-03-29 05:57:39+00",27.8,32.8,,50.8,-1168,526,61,1007.27,50.1,0
"2021-03-29 06:02:39+00",31.8,35.8,,50.8,-1279,666,58,1007.35,49.9,0
"2021-03-29 06:07:39+00",27.9,32.9,,50.6,-1179,458,72,1007.43,49.8,0
"2021-03-29 06:12:39+00",23.3,27.3,,50.4,-1054,237,69,1007.62,49.6,0
"2021-03-29 06:17:39+00",29.4,34.4,,50.5,-1222,592,72,1007.57,49.5,0
"2021-03-29 06:22:39+00",36.5,42.5,,50.5,-1462,670,89,1007.44,49.4,0
"2021-03-29 06:27:39+00",27.8,33.8,,50.2,-1129,599,83,1007.47,49.2,0
"2021-03-29 06:32:39+00",29.3,33.3,,50,-1192,602,86,1007.69,49.1,0
"2021-03-29 06:37:39+00",32.0,36.0,,50,-1309,602,54,1007.76,49.1,0
"2021-03-29 06:42:39+00",29.1,34.1,,50,-1205,494,69,1007.88,49.1,0
"2021-03-29 06:47:39+00",31.7,36.7,,49.8,-1392,416,68,1008.11,49,0
"2021-03-29 06:52:39+00",31.7,34.7,,49.6,-1392,331,88,1008.08,48.8,0
"2021-03-29 06:57:39+00",37.2,42.2,,49.5,-1638,363,90,1008.07,48.8,0
"2021-03-29 07:02:39+00",33.0,38.0,,49.2,-1474,447,81,1008.16,48.6,0
"2021-03-29 07:07:39+00",28.2,35.2,,49,-1271,294,95,1008.33,48.4,0
"2021-03-29 07:12:39+00",33.7,38.7,,49,-1513,367,47,1008.34,48.3,0
"2021-03-29 07:17:39+00",29.2,35.2,,49,-1277,410,90,1008.57,48.3,0
"2021-03-29 07:22:39+00",35.2,42.2,,49,-1529,415,87,1008.62,48.2,0
"2021-03-29 07:27:39+00",29.0,33.0,,48.7,-1298,225,107,1008.77,48.1,0
"2021-03-29 07:32:39+00",35.6,42.6,,48.7,-1468,735,134,1008.66,47.9,0
"2021-03-29 07:37:39+00",31.1,36.1,,48.6,-1332,482,108,1008.9,47.9,0
"2021-03-29 07:42:39+00",35.7,39.7,,48.5,-1525,529,89,1008.83,47.7,0
"2021-03-29 07:47:39+00",27.8,33.8,,48.4,-1157,453,78,1008.99,47.6,0
"2021-03-29 07:52:39+00",32.3,35.3,,48.4,-1444,398,70,1008.95,47.5,0
"2021-03-29 07:57:39+00",31.1,35.1,,48.3,-1393,251,98,1009.03,47.5,0
"2021-03-29 08:02:39+00",29.2,31.2,,48.1,-1290,238,71,1009.25,47.4,0
"2021-03-29 08:07:39+00",33.6,36.6,,48.1,-1460,408,73,1009.37,47.3,0
"2021-03-29 08:12:39+00",36.1,41.1,,48,-1602,395,92,1009.42,47.2,0
"2021-03-29 08:17:39+00",36.2,41.2,,47.8,-1608,447,78,1009.43,47,0
"2021-03-29 08:22:39+00",37.0,41.0,,47.7,-1672,293,98,1009.54,46.9,0
"2021-03-29 08:27:39+00",36.2,41.2,,47.7,-1585,470,98,1009.67,46.9,0
"2021-03-29 08:32:39+00",31.4,36.4,,47.6,-1368,383,81,1009.74,46.8,0
"2021-03-29 08:37:39+00",32.4,38.4,,47.6,-1386,507,100,1009.77,46.7,0
"2021-03-29 08:42:39+00",32.4,38.4,,47.5,-1350,572,85,1009.91,46.6,0
"2021-03-29 08:47:39+00",34.8,39.8,,47.5,-1468,509,65,1009.89,46.6,0
"2021-03-29 08:52:39+00",37.9,39.9,,47.5,-1682,412,85,1009.96,46.6,0
"2021-03-29 08:57:39+00",32.1,37.1,,47.3,-1405,418,94,1010.19,46.5,0
"2021-03-29 09:02:39+00",29.8,33.8,,47.3,-1305,335,98,1010.37,46.5,0
"2021-03-29 09:07:39+00",31.0,35.0,,47.3,-1374,280,83,1010.43,46.4,0
"2021-03-29 09:12:39+00",29.8,33.8,,47.3,-1301,407,92,1010.51,46.4,0
"2021-03-29 09:17:39+00",31.9,34.9,,47.2,-1368,457,62,1010.56,46.3,0
"2021-03-29 09:22:39+00",25.7,31.7,,47,-1123,332,71,1010.73,46.3,0
"2021-03-29 09:27:39+00",28.2,33.2,,47,-1217,286,61,1010.92,46.2,0
"2021-03-29 09:32:39+00",24.3,28.3,,47,-1093,169,55,1011.06,46.2,0
"2021-03-29 09:37:39+00",26.1,31.1,,46.9,-1157,241,97,1011,46.1,0
"2021-03-29 09:42:39+00",26.2,29.2,,47,-1173,231,59,1011.22,46.1,0
"2021-03-29 09:47:39+00",26.5,30.5,,47,-1175,317,77,1011.15,46.1,0
"2021-03-29 09:52:39+00",24.1,33.1,,47,-1002,297,87,1011.09,46.1,0
"2021-03-29 09:57:39+00",24.3,28.3,,47,-1030,406,73,1011.28,46.2,0
"2021-03-29 10:02:39+00",31.6,35.6,,47,-1302,575,55,1011.36,46.1,0
"2021-03-29 10:07:39+00",27.1,31.1,,47,-1111,471,68,1011.52,46.1,0
"2021-03-29 10:12:39+00",32.0,37.0,,47,-1323,558,72,1011.58,46.2,0
"2021-03-29 10:17:39+00",31.2,37.2,,46.9,-1305,479,74,1011.69,46.1,0
"2021-03-29 10:22:39+00",35.1,40.1,,47,-1500,574,57,1011.69,46.1,0
"2021-03-29 10:27:39+00",37.1,42.1,,47.1,-1567,573,91,1011.99,46.3,0
"2021-03-29 10:32:39+00",36.5,41.5,,47,-1588,528,73,1012.29,46.3,0
"2021-03-29 10:37:39+00",27.7,31.7,,46.8,-1212,438,89,1012.26,46.1,0
"2021-03-29 10:42:39+00",29.9,32.9,,46.7,-1280,479,62,1012.3,46,0
"2021-03-29 10:47:39+00",25.4,32.4,,46.6,-1050,484,77,1012.49,46,0
"2021-03-29 10:52:39+00",34.7,38.7,,46.6,-1364,778,79,1012.58,45.9,0
"2021-03-29 10:57:39+00",24.1,29.1,,46.4,-979,472,96,1012.78,45.7,0
"2021-03-29 11:02:39+00",28.1,31.1,,46.3,-1110,612,67,1012.9,45.7,0
"2021-03-29 11:07:39+00",26.8,31.8,,46.2,-1103,567,64,1013.08,45.6,0
"2021-03-29 11:12:39+00",31.8,36.8,,46.3,-1272,630,87,1012.97,45.6,0
"2021-03-29 11:17:39+00",32.8,39.8,,46.3,-1303,624,113,1012.99,45.7,0
"2021-03-29 11:22:39+00",36.9,40.9,,46.3,-1427,830,74,1013.02,45.8,0
"2021-03-29 11:27:39+00",35.9,41.9,,46.1,-1341,897,135,1013.04,45.8,0
"2021-03-29 11:32:39+00",32.3,42.3,,46.1,-1235,746,89,1013.22,45.9,0
"2021-03-29 11:37:39+00",37.8,41.8,,46,-1462,862,101,1013.18,45.9,0
"2021-03-29 11:42:39+00",32.1,35.1,,45.9,-1229,800,70,1013.45,45.9,0
"2021-03-29 11:47:39+00",31.9,36.9,,45.9,-1295,677,95,1013.65,46,0
"2021-03-29 11:52:39+00",36.2,41.2,,45.9,-1433,767,57,1013.76,46,0
"2021-03-29 11:57:39+00",29.2,34.2,,45.9,-1135,696,65,1013.96,46.2,0
"2021-03-29 12:02:39+00",29.6,33.6,,45.9,-1302,414,48,1014.24,46.3,0
"2021-03-29 12:07:39+00",35.9,40.9,,45.8,-1393,776,95,1014.27,46.3,0
"2021-03-29 12:12:39+00",28.7,31.7,,45.9,-1100,690,86,1014.14,46.3,0
"2021-03-29 12:17:39+00",27.6,32.6,,45.9,-1050,643,77,1014.27,46.3,0
"2021-03-29 12:22:39+00",31.5,36.5,,45.7,-1246,696,111,1014.33,46.3,0
"2021-03-29 12:27:39+00",26.0,31.0,,45.9,-1031,591,102,1014.66,46.4,0
"2021-03-29 12:32:39+00",31.5,38.5,,45.8,-1326,582,55,1014.75,46.5,0
"2021-03-29 12:37:39+00",27.0,36.0,,45.8,-1084,619,81,1014.89,46.4,0
"2021-03-29 12:42:39+00",28.4,34.4,,45.7,-1099,632,89,1015.12,46.4,0
"2021-03-29 12:47:39+00",32.1,37.1,,45.8,-1356,514,85,1015.28,46.6,0
"2021-03-29 12:52:39+00",32.7,35.7,,45.6,-1298,681,75,1015.38,46.5,0
"2021-03-29 12:57:39+00",29.6,33.6,,45.7,-1243,587,66,1015.64,46.5,0
"2021-03-29 13:02:39+00",35.3,41.3,,45.6,-1494,641,64,1015.67,46.5,0
"2021-03-29 13:07:39+00",34.6,39.6,,45.7,-1449,670,73,1015.75,46.5,0
"2021-03-29 13:12:39+00",28.9,32.9,,45.8,-1113,659,147,1015.99,46.3,0
"2021-03-29 13:17:39+00",31.3,35.3,,45.7,-1182,742,49,1016.11,46.6,0
"2021-03-29 13:22:39+00",34.0,38.0,,45.8,-1341,721,43,1016.08,46.7,0
"2021-03-29 13:27:39+00",28.4,31.4,,46,-1090,695,86,1016.25,46.9,0
"2021-03-29 13:32:39+00",35.0,39.0,,46.1,-1325,871,89,1016.32,47.2,0
"2021-03-29 13:37:39+00",30.2,36.2,,46.2,-1186,711,89,1016.53,47.3,0
"2021-03-29 13:42:39+00",30.5,36.5,,46.1,-1248,572,77,1016.47,47.1,0
"2021-03-29 13:47:39+00",36.3,42.3,,46.1,-1395,872,91,1016.51,46.9,0
"2021-03-29 13:52:39+00",30.4,35.4,,46.3,-1148,740,91,1016.79,47.2,0
"2021-03-29 13:57:39+00",27.4,29.4,,46.4,-1101,579,53,1016.94,47.5,0
"2021-03-29 14:02:39+00",32.1,38.1,,46.3,-1346,507,48,1016.91,47.5,0
"2021-03-29 14:07:39+00",34.3,37.3,,46.4,-1444,560,50,1016.95,47.6,0
"2021-03-29 14:12:39+00",33.2,38.2,,46.5,-1395,572,79,1017.11,47.6,0
"2021-03-29 14:17:39+00",37.1,43.1,,46.3,-1470,764,77,1017.14,47.5,0
"2021-03-29 14:22:39+00",27.9,31.9,,46.5,-1187,388,79,1017.32,47.8,0
"2021-03-29 14:27:39+00",34.2,40.2,,46.5,-1524,349,88,1017.39,48,0
"2021-03-29 14:32:39+00",34.3,41.3,,46.4,-1448,476,37,1017.43,47.8,0
"2021-03-29 14:37:39+00",29.7,33.7,,46.7,-1121,713,106,1017.57,47.9,0
"2021-03-29 14:42:39+00",29.6,33.6,,46.6,-1197,604,61,1017.64,48,0
"2021-03-29 14:47:39+00",32.9,37.9,,46.8,-1403,526,59,1017.6,48.2,0
"2021-03-29 14:52:39+00",28.0,32.0,,46.9,-1191,518,64,1017.74,48.2,0
"2021-03-29 14:57:39+00",30.1,35.1,,46.8,-1200,648,65,1017.81,48.1,0
"2021-03-29 15:02:39+00",32.6,36.6,,46.9,-1081,968,95,1018.02,48.2,0
"2021-03-29 15:07:39+00",29.4,34.4,,46.9,-1180,646,64,1018.13,48.4,0
"2021-03-29 15:12:39+00",26.0,32.0,,47.3,-1081,511,76,1018.2,48.7,0
"2021-03-29 15:17:39+00",29.0,37.0,,47.2,-1157,587,85,1018.07,48.7,0
"2021-03-29 15:22:39+00",32.6,37.6,,47.2,-1231,837,82,1018.12,48.6,0
"2021-03-29 15:27:39+00",27.9,31.9,,48,-1067,659,104,1018.15,49,0
"2021-03-29 15:32:39+00",29.1,35.1,,47.5,-945,871,76,1018.11,48.8,0
"2021-03-29 15:37:39+00",27.7,29.7,,47.7,-1024,717,42,1018.26,49.1,0
"2021-03-29 15:42:39+00",23.7,25.7,,47.7,-974,442,60,1018.29,49.4,0
"2021-03-29 15:47:39+00",23.8,27.8,,47.8,-930,553,77,1018.4,49.7,0
"2021-03-29 15:52:39+00",25.5,29.5,,47.6,-1058,435,46,1018.48,49.6,0
"2021-03-29 15:57:39+00",24.9,30.9,,47.8,-1049,482,59,1018.49,49.8,0
"2021-03-29 16:02:39+00",22.7,28.7,,48,-952,404,110,1018.6,49.9,0
"2021-03-29 16:07:39+00",25.8,29.8,,48.1,-1124,308,73,1018.52,50.2,0
"2021-03-29 16:12:39+00",25.1,31.1,,48.5,-914,594,82,1018.42,50.4,0
"2021-03-29 16:17:39+00",25.9,31.9,,48.3,-1113,365,75,1018.39,50.3,0
"2021-03-29 16:22:39+00",24.9,27.9,,48.5,-1099,294,90,1018.51,50.6,0
"2021-03-29 16:27:39+00",25.1,30.1,,48.5,-1079,372,53,1018.63,50.7,0
"2021-03-29 16:32:39+00",18.1,22.1,,48.7,-638,528,37,1018.63,51,0
"2021-03-29 16:37:39+00",20.7,24.7,,48.4,-842,393,63,1018.79,50.8,0
"2021-03-29 16:42:39+00",27.3,30.3,,48.7,-1134,489,49,1018.65,51.1,0
"2021-03-29 16:47:39+00",24.5,29.5,,48.8,-994,501,59,1018.62,51,0
"2021-03-29 16:52:39+00",24.4,26.4,,49.1,-977,486,61,1018.66,51.1,0
"2021-03-29 16:57:39+00",22.2,24.2,,49,-893,472,42,1018.72,51,0
"2021-03-29 17:02:39+00",18.9,21.9,,49.4,-785,318,77,1018.77,51.3,0
"2021-03-29 17:07:39+00",22.4,25.4,,49.5,-988,294,59,1018.69,51.8,0
"2021-03-29 17:12:39+00",25.7,28.7,,49,-1181,101,44,1018.71,51.9,0
"2021-03-29 17:17:39+00",22.9,27.9,,49.9,-1017,319,69,1018.92,52.3,0
"2021-03-29 17:22:39+00",24.3,30.3,,49.4,-1049,358,62,1018.84,52.1,0
"2021-03-29 17:27:39+00",27.3,31.3,,49.7,-1159,499,53,1018.9,52.2,0
"2021-03-29 17:32:39+00",19.7,22.7,,49.5,-787,415,40,1019.06,52.2,0
"2021-03-29 17:37:39+00",23.0,27.0,,50.1,-977,439,46,1018.94,52.4,0
"2021-03-29 17:42:39+00",24.0,26.0,,50,-1021,394,47,1018.95,52.8,0
"2021-03-29 17:47:39+00",21.8,25.8,,50.4,-869,511,76,1019.05,53,0
"2021-03-29 17:52:39+00",23.4,25.4,,49.9,-1070,180,65,1019.13,53.1,0
"2021-03-29 17:57:39+00",18.9,20.9,,50.1,-852,118,41,1019.24,53.4,0
"2021-03-29 18:02:39+00",26.0,29.0,,50.6,-1104,415,55,1019.12,53.6,0
"2021-03-29 18:07:39+00",22.0,27.0,,50.3,-980,271,52,1018.99,53.8,0
"2021-03-29 18:12:39+00",23.6,28.6,,50.5,-1042,202,85,1018.93,54,0
"2021-03-29 18:17:39+00",26.7,29.7,,50.9,-1099,534,52,1018.78,54.2,0
"2021-03-29 18:22:39+00",24.2,29.2,,50.9,-996,286,134,1018.88,54.1,0
"2021-03-29 18:27:39+00",19.8,21.8,,51.1,-885,142,58,1019.12,54.4,0
"2021-03-29 18:32:39+00",20.5,25.5,,51.4,-888,370,65,1019.16,54.6,0
"2021-03-29 18:37:39+00",24.5,28.5,,50.8,-1083,263,67,1019.13,54.5,0
"2021-03-29 18:42:39+00",18.9,23.9,,51.1,-834,216,87,1019.01,54.4,0
"2021-03-29 18:47:39+00",23.0,25.0,,51.3,-1003,279,51,1018.87,54.1,0
"2021-03-29 18:52:39+00",23.0,25.0,,51.5,-999,376,64,1018.96,54.5,0
"2021-03-29 18:57:39+00",21.7,24.7,,51.6,-961,309,61,1019.08,54.4,0
"2021-03-29 19:02:39+00",24.7,28.7,,51.7,-987,494,68,1018.94,54.5,0
"2021-03-29 19:07:39+00",28.6,32.6,,51.6,-1188,510,63,1019,54.5,0
"2021-03-29 19:12:39+00",23.6,28.6,,51.9,-918,530,48,1019.13,54.2,0
"2021-03-29 19:17:39+00",22.9,28.9,,52.1,-902,515,57,1019.15,54.4,0
"2021-03-29 19:22:39+00",24.0,26.0,,52,-949,517,41,1019.08,54.5,0
"2021-03-29 19:27:39+00",25.8,27.8,,52.1,-1104,397,65,1019.07,54.9,0
"2021-03-29 19:32:39+00",24.6,30.6,,52.1,-1047,436,40,1019.13,55,0
"2021-03-29 19:37:39+00",26.2,30.2,,52,-1133,400,78,1019.32,55,0
"2021-03-29 19:42:39+00",20.9,23.9,,52.2,-885,369,64,1019.48,55.4,0
"2021-03-29 19:47:39+00",22.8,25.8,,52.3,-1003,269,39,1019.53,55.4,0
"2021-03-29 19:52:39+00",21.2,25.2,,52.7,-933,289,89,1019.71,55.6,0
"2021-03-29 19:57:39+00",20.3,22.3,,52.7,-829,446,52,1019.69,55.6,0
"2021-03-29 20:02:39+00",26.7,30.7,,52.6,-1109,534,55,1019.45,55.4,0
"2021-03-29 20:07:39+00",21.8,24.8,,52.7,-873,463,58,1019.42,55.3,0
"2021-03-29 20:12:39+00",21.0,27.0,,52.9,-889,333,84,1019.45,55.2,0
"2021-03-29 20:17:39+00",21.5,27.5,,52.9,-931,332,55,1019.49,55.4,0
"2021-03-29 20:22:39+00",20.9,23.9,,52.3,-925,261,64,1019.57,55.1,0
"2021-03-29 20:27:39+00",21.8,25.8,,52.4,-934,289,33,1019.45,55.4,0
"2021-03-29 20:32:39+00",21.4,24.4,,52.7,-889,383,42,1019.49,55.4,0
"2021-03-29 20:37:39+00",25.2,28.2,,52.7,-1074,433,45,1019.52,55.4,0
"2021-03-29 20:42:39+00",22.2,26.2,,52.7,-868,500,93,1019.55,55.1,0
"2021-03-29 20:47:39+00",19.2,22.2,,52.9,-838,289,36,1019.77,55.5,0
"2021-03-29 20:52:39+00",16.0,20.0,,53.2,-594,402,50,1019.94,55.6,0
"2021-03-29 20:57:39+00",23.0,26.0,,52.9,-995,319,49,1020,55.6,0
"2021-03-29 21:02:39+00",23.8,27.8,,53,-1003,430,51,1019.9,55.6,0
"2021-03-29 21:07:39+00",16.7,19.7,,53.1,-691,355,39,1019.96,55.5,0
"2021-03-29 21:12:39+00",21.2,24.2,,53.1,-850,462,44,1020.1,55.3,0
"2021-03-29 21:17:39+00",20.0,24.0,,53.1,-702,567,42,1020.33,54.9,0
"2021-03-29 21:22:39+00",18.2,21.2,,53.4,-692,425,85,1020.45,55,0
"2021-03-29 21:27:39+00",24.5,27.5,,53.3,-1020,438,74,1020.47,55.2,0
"2021-03-29 21:32:39+00",20.8,24.8,,53.1,-847,386,56,1020.54,55.3,0
"2021-03-29 21:37:39+00",24.4,26.4,,53.3,-874,683,47,1020.61,55.3,0
"2021-03-29 21:42:39+00",19.4,22.4,,53.2,-808,359,46,1020.97,55.1,0
"2021-03-29 21:47:39+00",18.5,21.5,,53.4,-697,468,57,1021.02,55.1,0
"2021-03-29 21:52:39+00",15.3,19.3,,53.5,-624,270,54,1021.09,55.3,0
"2021-03-29 21:57:39+00",17.7,19.7,,53.5,-773,250,51,1021.17,55.5,0
"2021-03-29 22:02:39+00",19.4,21.4,,53.1,-835,270,35,1021.29,55.4,0
"2021-03-29 22:07:39+00",19.7,21.7,,53.2,-765,437,35,1021.17,55.2,0
"2021-03-29 22:12:39+00",16.0,18.0,,53.3,-660,287,59,1021.32,54.8,0
"2021-03-29 22:17:39+00",17.6,19.6,,53.1,-765,228,48,1021.4,54.8,0
"2021-03-29 22:22:39+00",18.5,19.5,,53.2,-712,454,34,1021.21,54.7,0
"2021-03-29 22:27:39+00",18.4,20.4,,53.1,-741,377,43,1021.17,54.4,0
"2021-03-29 22:32:39+00",13.5,15.5,,53.2,-550,241,27,1021.4,54.3,0
"2021-03-29 22:37:39+00",14.5,16.5,,53.1,-539,373,37,1021.55,54.2,0
"2021-03-29 22:42:39+00",14.5,15.5,,53.1,-592,280,34,1021.51,54.1,0
"2021-03-29 22:47:39+00",13.5,15.5,,52.8,-603,184,52,1021.61,54,0
"2021-03-29 22:52:39+00",12.6,14.6,,52.9,-557,100,39,1021.76,53.8,0
"2021-03-29 22:57:39+00",14.3,16.3,,52.7,-638,98,22,1021.97,53.3,0
"2021-03-29 23:02:39+00",13.3,15.3,,52.5,-600,111,30,1022,53,0
"2021-03-29 23:07:39+00",14.4,15.4,,52.4,-640,177,31,1022.09,52.7,0
"2021-03-29 23:12:39+00",11.7,13.7,,52.3,-529,84,28,1022.13,52.4,0
"2021-03-29 23:17:39+00",11.0,13.0,,52.2,-495,106,38,1022.32,52,0
"2021-03-29 23:22:39+00",11.5,13.5,,52.2,-505,149,52,1022.39,51.6,0
"2021-03-29 23:27:39+00",12.2,13.2,,52,-522,179,27,1022.38,51.2,0
"2021-03-29 23:32:39+00",10.6,12.6,,51.9,-418,215,34,1022.43,50.7,0
"2021-03-29 23:37:39+00",8.3,9.3,,51.6,-375,103,20,1022.71,50.4,0
"2021-03-29 23:42:39+00",10.0,12.0,,51.6,-425,155,20,1022.72,50.2,0
"2021-03-29 23:47:39+00",9.7,10.7,,51.6,-436,61,17,1022.86,50,0
"2021-03-29 23:52:39+00",9.7,10.7,,51.5,-433,65,11,1022.7,49.9,0
"2021-03-29 23:57:39+00",10.1,11.1,,51.5,-404,201,17,1022.56,49.5,0
